Regional Weather Roundup
Issued by NWS

Home | Current Version | Previous Version | Text Only | Print | Product List | Glossary On
Versions: 1 2 3 4 5 6 7 8 9 10 11 12 13 14 15 16 17 18 19 20 21 22 23 24 25 26 27 28 29 30 31 32 33 34 35 36 37 38 39 40 41 42 43 44 45 46 47 48 49 50
000
ASUS44 KFWD 120415
RWRTX
NORTH TEXAS HOURLY WEATHER ROUNDUP
NATIONAL WEATHER SERVICE FORT WORTH TX
1100 PM CDT FRI JUL 11 2014

NOTE: "FAIR" INDICATES FEW OR NO CLOUDS BELOW 12,000 FEET WITH NO
SIGNIFICANT WEATHER AND/OR OBSTRUCTIONS TO VISIBILITY.

TXZ118-119-120500-
DALLAS/FORT WORTH METROPLEX

CITY           SKY/WX    TMP DP  RH WIND       PRES   REMARKS
DFW AIRPORT    CLEAR     86  60  41 S9        30.10R
DALLAS LOVE    CLEAR     87  62  43 SE12      30.10R
FTW MEACHAM    CLEAR     86  62  44 S10       30.10R
DAL-EXECUTIVE  CLEAR     85  63  47 SE6       30.11R
FTW-ALLIANCE   CLEAR     81  61  50 S7        30.10R
FTW-NAS-JRB    CLEAR     88  59  37 S9        30.14R
FTW-SPINKS     CLEAR     81  62  52 SE3       30.12S
ARLINGTON      CLEAR     83  61  47 SE7       30.11R
GRAND PRAIRIE  CLEAR     85  60  43 SE6       30.12R
ADDISON        CLEAR     87  58  38 SE8       30.13R
MESQUITE       CLEAR     78  66  65 SE5       30.12R
LANCASTER      CLEAR     75  64  69 CALM      30.12R
$$

TXZ091>094-102>105-117-120-121-131>134-120500-
NORTH CENTRAL TEXAS

CITY           SKY/WX    TMP DP  RH WIND       PRES   REMARKS
SHRMAN/DENISON CLEAR     84  62  46 SE10      30.12R
GAINESVILLE    CLEAR     79  61  54 S3        30.13R
BOWIE          CLEAR     80  62  54 SE6       30.12R
BRIDGEPORT     CLEAR     82  55  39 S6        30.12R
DECATUR        CLEAR     83  57  41 CALM      30.12R
DENTON         CLEAR     80  61  52 S7        30.10R
MCKINNEY       CLEAR     82  66  58 SE6       30.11R
GREENVILLE     CLEAR     79  66  65 SE5       30.12S
ROCKWALL       CLEAR     81  67  63 SE5       30.11R
TERRELL        CLEAR     83  67  58 SE6       30.12R
WAXAHACHIE     CLEAR     80  61  53 SE3       30.13R
CLEBURNE       CLEAR     81  64  57 SE7       30.13R
GRANBURY       CLEAR     84  63  48 SE6       30.12R
$$

TXZ083>090-098>101-113>116-127>130-139>142-154-155-120500-
WESTERN NORTH TEXAS

CITY           SKY/WX    TMP DP  RH WIND       PRES   REMARKS
WICHITA FALLS  CLEAR     84  60  44 S14       30.08R
WF-KICKAPOO    CLEAR     83  59  44 SE10      30.09R
VERNON         CLEAR     85  58  40 SE8       30.08R
ABILENE        CLEAR     81  56  42 S9        30.12R
ABILENE-DYESS  CLEAR     82  58  45 S9        30.11R
BRECKENRIDGE   CLEAR     86  59  39 SE14      30.11R
MINERAL WELLS  CLEAR     78  59  51 SE7       30.10R
STEPHENVILLE   CLEAR     81  58  46 S6        30.15R
COMANCHE       CLEAR     80  55  42 S9        30.14R
BROWNWOOD      MOCLDY    81  57  44 SE8       30.13R
COLEMAN        CLEAR     83  53  35 SE14G20   30.13R
BRADY          CLEAR     81  57  44 E6        30.15R
$$

TXZ143>147-156>162-174-175-120500-
CENTRAL TEXAS

CITY           SKY/WX    TMP DP  RH WIND       PRES   REMARKS
WACO           CLEAR     84  65  52 S12       30.11R
WACO-TSTC      CLEAR     82  61  47 S6        30.12R
WACO-MCGREGOR  CLEAR     81  59  47 S8        30.14R
HILLSBORO      CLEAR     82  64  54 SE7       30.12R
CORSICANA      CLEAR     84  69  60 SE6       30.13R
MEXIA          CLEAR     79  71  76 S3        30.11S
HEARNE         CLEAR     84  75  75 SE5       30.12S HX  92
CAMERON        CLEAR     80  64  59 S8        30.12S
TEMPLE         CLEAR     82  54  36 SE10      30.13S
KILLEEN        CLEAR     81  63  54 SE12      30.14R
KILLEEN-SKYLRK CLEAR     82  59  44 SE10      30.13R
FORT HOOD      CLEAR     84  61  45 SE8       30.13R
GATESVILLE     CLEAR     81  57  44 S5        30.15R
HAMILTON       CLEAR     76  57  53 SE8       30.15R
LAMPASAS       CLEAR     78  60  54 SE6       30.14R
$$

TXZ095>097-106>112-122>126-135>138-148>153-164>167-120500-
EAST TEXAS

CITY           SKY/WX    TMP DP  RH WIND       PRES   REMARKS
PARIS          CLEAR     79  63  57 S6        30.13R
SULPHUR SPRNGS CLEAR     84  67  56 S7        30.14S
CLARKSVILLE    MOCLDY    82  69  62 CALM      30.12R
MOUNT PLEASANT CLEAR     77  72  83 CALM      30.14R
GILMER         CLEAR     81  73  78 CALM      30.14S
MINEOLA        CLEAR     82  72  69 S5        30.13S
TYLER          CLEAR     80  71  74 S5        30.13R
LONGVIEW       CLEAR     81  72  74 S3        30.12R
MARSHALL         N/A     79  75  86 CALM      30.14
ATHENS         CLEAR     77  70  78 CALM      30.12R
PALESTINE      CLEAR     80  69  69 E3        30.15R
JACKSONVILLE   CLEAR     81  70  68 CALM      30.16S
HENDERSON      CLEAR     78  73  87 CALM      30.14S
NACOGDOCHES    CLEAR     77  72  83 CALM      30.14R
LUFKIN         CLEAR     84  73  69 S5        30.13R HX  90
$$

SUPPLEMENTAL OBSERVATIONS (CENTRAL)

CITY           SKY/WX    TMP DP  RH WIND       PRES   REMARKS
LAKE TEXOMA      N/A     84  63  48 S7          N/A
CADDO GRASSLND   N/A     82  64  54 S5          N/A
PAT MAYSE LAKE   N/A     82  66  57 SE7         N/A
GREENVILLE       N/A     81  68  65 S3          N/A
CEDAR HILL       N/A     82  63  51 SE6         N/A
ATHENS           N/A     81  70  69 E2          N/A
PALESTINE        N/A     75  72  88 CALM        N/A
LAKE LIMESTONE   N/A     81  70  69 S3          N/A
MCGREGOR         N/A     81  57  44 S9          N/A
TEMPLE           N/A     79  59  50 S7          N/A
$$

SUPPLEMENTAL OBSERVATIONS (WEST)

CITY           SKY/WX    TMP DP  RH WIND       PRES   REMARKS
POSSUM KINGDOM   N/A     84  57  39 SE9         N/A
LBJ GRASSLAND    N/A     82  57  42 SE6         N/A
GRANBURY         N/A     84  63  48 SE6         N/A
COMANCHE         N/A     81  55  41 S8          N/A
HAMBY            N/A     81  54  39 SE5G14      N/A
$$

SUPPLEMENTAL OBSERVATIONS (EAST)

CITY           SKY/WX    TMP DP  RH WIND       PRES   REMARKS
TEXARKANA        N/A     75  70  83 CALM        N/A
LINDEN           N/A     81  66  61 CALM        N/A
CADDO LAKE       N/A     73  72  94 CALM        N/A
GILMER           N/A     77  72  83 CALM        N/A
HENDERSON        N/A     77  72  83 CALM        N/A
LUFKIN           N/A     81  77  89 MISG        N/A
N SABINE NF      N/A     75  72  88 MISG        N/A
S SABINE NF      N/A     75  72  88 CALM        N/A
$$

SUPPLEMENTAL OBSERVATIONS ARE A COLLECTION OF AUTOMATED INSTRUMENTS
THAT ARE MAINTAINED BY A VARIETY OF FEDERAL AND STATE AGENCIES.
CERTAIN ELEMENTS...SUCH AS HUMIDITY VALUES AND SUSTAINED WIND
SPEEDS...MAY BE APPROXIMATED.




USA.gov is the U.S. government's official web portal to all federal, state and local government web resources and services.